This is the latest recevied weather packets stored in our database for station/object LZ1HCO-25. If no packets are shown the sender has not sent any weather packets the latest 10 day(s).
| Time | Temp. | Humidity | Pressure | Rain* | Wind** | Luminosity | Snow |
|---|---|---|---|---|---|---|---|
| 1777633366 | 11.67° C | 86% | 978 hPa | - | - | 0 W/m² | - |
| 1777633054 | 13.33° C | 89% | 978 hPa | - | - | 0 W/m² | - |
| 1777632743 | 13.33° C | 91% | 978 hPa | - | - | 0 W/m² | - |
| 1777632432 | 12.78° C | 87% | 978 hPa | - | - | 0 W/m² | - |
| 1777632120 | 12.22° C | 87% | 978 hPa | - | - | 0 W/m² | - |
| 1777631809 | 10.56° C | 92% | 978 hPa | - | - | 0 W/m² | - |
| 1777631497 | 11.67° C | 91% | 978 hPa | - | - | 0 W/m² | - |
| 1777631186 | 13.33° C | 89% | 978 hPa | - | - | 0 W/m² | - |
| 1777630875 | 11.67° C | 94% | 978 hPa | - | - | 0 W/m² | - |
| 1777630563 | 11.11° C | 92% | 978 hPa | - | - | 0 W/m² | - |
| 1777630252 | 12.22° C | 95% | 978 hPa | - | - | 0 W/m² | - |
| 1777629941 | 10° C | 99% | 978 hPa | - | - | 0 W/m² | - |
| 1777629629 | 11.67° C | 99% | 978 hPa | - | - | 0 W/m² | - |
| 1777629318 | 10° C | 99% | 978 hPa | - | - | 0 W/m² | - |
| 1777629007 | 11.11° C | 99% | 978 hPa | - | - | 0 W/m² | - |
| 1777628695 | 12.22° C | 99% | 978 hPa | - | - | 0 W/m² | - |
| 1777628384 | 11.11° C | 99% | 978 hPa | - | - | 0 W/m² | - |
| 1777628073 | 11.11° C | 99% | 978 hPa | - | - | 0 W/m² | - |
| 1777627761 | 11.11° C | 99% | 978 hPa | - | - | 0 W/m² | - |
| 1777627450 | 10.56° C | 99% | 978 hPa | - | - | 0 W/m² | - |
| 1777627138 | 9.44° C | 99% | 978 hPa | - | - | 0 W/m² | - |
| 1777626827 | 10° C | 99% | 978 hPa | - | - | 0 W/m² | - |
| 1777626516 | 9.44° C | 99% | 978 hPa | - | - | 0 W/m² | - |
| 1777626204 | 11.11° C | 99% | 978 hPa | - | - | 0 W/m² | - |
| 1777625893 | 10° C | 99% | 978 hPa | - | - | 0 W/m² | - |
* Rain since midnight (hover to see other rain measurements)
** Current wind speed in m/s (hover to see current wind gust speed)